Location: Unspecified
(41.1637°N, 24.2901°E)
Time: 17:19:47
(UTC+01:00)

ISS - Pass Details

Date: 16 January 2025
Orbit: 415 x 418 km, 51.6° (Epoch: 13 January)

Event Time Altitude Azimuth Distance (km) Brightness Sun altitude
Rises 17:11:39 0° 240° (WSW) 2,345 2.0 -9.7°
Reaches altitude 10° 17:13:45 10° 243° (WSW) 1,485 0.6 -10.1°
Maximum altitude 17:17:04 65° 327° (NNW) 459 -3.5 -10.7°
Enters shadow 17:19:40 16° 47° (NE) 1,201 -2.0 -11.2°
